Regional Weather Roundup
Issued by NWS

Home | Current Version | Previous Version | Text Only | Print | Product List | Glossary Off
Versions: 1 2 3 4 5 6 7 8 9 10 11 12 13 14 15 16 17 18 19 20 21 22 23 24 25 26 27

000
ASUS45 KSLC 252310
RWRUT

UTAH REGIONAL WEATHER ROUNDUP
NATIONAL WEATHER SERVICE SALT LAKE CITY UT
500 PM MDT SUN SEP 25 2016

UTZ001>011-023>025-260000-

NORTHERN UTAH

CITY           SKY/WX    TMP DP  RH WIND       PRES   REMARKS
BRIGHAM CITY     N/A     68  37  31 NW3       30.43F
HILL AFB       SUNNY     65  41  41 N7        30.44S
LOGAN          SUNNY     67  38  34 N5        30.44F
OGDEN          SUNNY     65  40  39 VRB7      30.43S
PROVO AIRPORT  SUNNY     65  40  39 NW6       30.43S
SALT LAKE CITY SUNNY     67  42  40 NW13      30.42S
VERNAL         SUNNY     62  39  42 SW8       30.44F
WENDOVER       SUNNY     66  41  39 SE6       30.45S
HEBER CITY     SUNNY     70  27  19 N5        30.40F
WEST JORDAN    SUNNY     64  43  47 NW12      30.44F

$$

UTZ012>022-026-027-260000-

SOUTHERN/CENTRAL UTAH

CITY           SKY/WX    TMP DP  RH WIND       PRES   REMARKS
BLANDING       SUNNY     70  28  21 NE9       30.41S
BRYCE CANYON   SUNNY     65  25  22 NE13      30.46R
CEDAR CITY     SUNNY     70  32  24 N14       30.35S
DELTA          SUNNY     68  36  30 N8        30.40F
MILFORD        SUNNY     69  33  26 N23       30.37F
MOAB/CYNLANDS  SUNNY     71  34  25 NW10      30.33F
PRICE          SUNNY     65  36  34 S3        30.43F
ST GEORGE      CLEAR     84  36  17 CALM      30.20F

$$

REGIONAL REPORTS     COLORADO/ARIZONA

CITY           SKY/WX    TMP DP  RH WIND       PRES   REMARKS
CRAIG, CO      SUNNY     62  29  28 MISG      30.47S
GRAND JUNCTION SUNNY     69  39  33 W12       30.35F
RIFLE          SUNNY     69  31  24 VRB5      30.38F
MONTROSE       SUNNY     64  32  30 NW6       30.40F
CORTEZ         SUNNY     72  33  24 SW9       30.32F
PAGE, AZ       SUNNY     75  27  17 E10       30.28F
GRAND CANYON   SUNNY     65  31  28 E17G26    30.38F
KINGMAN        SUNNY     84  30  14 N15G23    30.15F
FLAGSTAFF      SUNNY     65  30  27 E16G22    30.35R

$$

REGIONAL REPORTS    NEVADA/IDAHO/WYOMING

CITY           SKY/WX    TMP DP  RH WIND       PRES   REMARKS
LAS VEGAS, NV  SUNNY     87  24  10 NE15      30.13F
ELY            SUNNY     69  27  20 N20G29    30.44F
ELKO           SUNNY     75  29  18 NE12      30.42F
POCATELLO, ID  SUNNY     67  30  25 VRB3      30.46F
BURLEY         SUNNY     65  37  35 VRB5      30.43F
EVANSTON, WY   SUNNY     59  32  36 N12       30.51S
ROCK SPRINGS   SUNNY     58  29  33 SW12      30.47F

$$




USA.gov is the U.S. government's official web portal to all federal, state and local government web resources and services.